Lewes DE-University DE USA current weather conditions

sailwx.info

Wind from 073 at 2 knots gusting 4

Air temperature 21.8° C
Dewpoint 20.6° C

Last reported at 2020-Aug-08 11:05 UTC.
Time now 2020-Aug-08 11:33 UTC

Location: N 38°47' W 075°09'.
View on Google Maps.

See reports from other nearby stations

  
Tides and Currents Weather Stations Pressure Air Temp Water Temp Dewpoint Dewpoint Depression Visibility Wind Speed Wind Dir Waves Ship Positions
date/time (UTC)wind fromknots sea level pressurealtimeterstation pressurevisibilityair tempwater tempwave heightnotes
2020-Aug-08 11:05 073 2 gusting 4 21.8
2020-Aug-08 11:00 055 1 gusting 3 21.8
2020-Aug-08 10:55 074 1 gusting 3 21.8
2020-Aug-08 10:50 066 1 gusting 2 21.7
2020-Aug-08 10:45 047 1 gusting 3 21.7
2020-Aug-08 10:40 045 2 gusting 4 21.7
2020-Aug-08 10:35 055 1 gusting 2 21.7
2020-Aug-08 10:30 077 1 gusting 3 21.7
2020-Aug-08 10:25 058 1 gusting 4 21.7
2020-Aug-08 10:20 083 1 gusting 4 21.6
2020-Aug-08 10:15 077 1 gusting 3 21.6
2020-Aug-08 10:10 069 1 gusting 4 21.6
2020-Aug-08 10:05 051 1 gusting 3 21.5
2020-Aug-08 10:00 036 1 gusting 3 21.5
2020-Aug-08 09:55 051 1 gusting 4 21.4
2020-Aug-08 09:50 055 1 gusting 4 21.4
2020-Aug-08 09:45 074 2 gusting 4 21.5
2020-Aug-08 09:40 061 2 gusting 5 21.5
2020-Aug-08 09:35 073 2 gusting 5 21.5
2020-Aug-08 09:30 076 2 gusting 4 21.6
2020-Aug-08 09:25 069 2 gusting 6 21.5
2020-Aug-08 09:20 059 2 gusting 4 21.5
2020-Aug-08 09:15 069 1 gusting 3 21.5
2020-Aug-08 09:10 080 2 gusting 5 21.5
2020-Aug-08 09:05 054 1 gusting 4 21.5
2020-Aug-08 09:00 052 2 gusting 4 21.5
2020-Aug-08 08:55 076 2 gusting 4 21.5
2020-Aug-08 08:50 069 2 gusting 6 21.6
2020-Aug-08 08:45 071 2 gusting 6 21.6
2020-Aug-08 08:40 048 2 gusting 5 21.7
2020-Aug-08 08:35 033 3 gusting 6 21.7
2020-Aug-08 08:30 032 2 gusting 5 21.9
2020-Aug-08 08:25 032 3 gusting 5 22.3
2020-Aug-08 08:20 034 3 gusting 7 22.8
2020-Aug-08 08:15 026 2 gusting 6 22.9
2020-Aug-08 08:10 024 3 gusting 5 22.9
2020-Aug-08 08:05 014 2 gusting 5 22.9
2020-Aug-08 08:00 022 3 gusting 6 22.8
2020-Aug-08 07:55 013 3 gusting 7 22.8
2020-Aug-08 07:50 022 2 gusting 7 22.5
2020-Aug-08 07:45 019 2 gusting 5 22.3
2020-Aug-08 07:40 025 2 gusting 4 22.2
2020-Aug-08 07:35 023 1 gusting 4 22.1
2020-Aug-08 07:30 004 3 gusting 5 22.0
2020-Aug-08 07:25 011 2 gusting 5 21.8
2020-Aug-08 07:20 015 2 gusting 5 21.8
2020-Aug-08 07:15 020 1 gusting 3 21.6
2020-Aug-08 07:10 012 2 gusting 5 21.6
2020-Aug-08 07:05 342 2 gusting 3 21.4
2020-Aug-08 07:00 264 1 gusting 3 21.3
2020-Aug-08 06:55 262 1 gusting 2 21.3
2020-Aug-08 06:50 197 1 gusting 2 21.3
2020-Aug-08 06:45 178 1 gusting 3 21.4
2020-Aug-08 06:40 219 2 gusting 5 21.4
2020-Aug-08 06:35 246 3 gusting 6 21.4
2020-Aug-08 06:30 217 1 gusting 2 21.4
2020-Aug-08 06:25 214 1 gusting 2 21.4
2020-Aug-08 06:20 230 1 gusting 2 21.4
2020-Aug-08 06:15 247 2 gusting 4 21.4
2020-Aug-08 06:10 247 3 gusting 5 21.4
2020-Aug-08 06:05 225 3 gusting 6 21.3
2020-Aug-08 06:00 206 3 gusting 5 21.3
2020-Aug-08 05:55 205 3 gusting 7 21.3
2020-Aug-08 05:50 197 3 gusting 6 21.2
2020-Aug-08 05:45 197 3 gusting 6 21.2
2020-Aug-08 05:40 201 4 gusting 6 21.2
2020-Aug-08 05:35 209 4 gusting 6 21.2
2020-Aug-08 05:30 210 4 gusting 5 21.1
2020-Aug-08 05:25 201 3 gusting 6 21.1
2020-Aug-08 05:20 193 2 gusting 5 21.0
2020-Aug-08 05:15 201 3 gusting 7 21.0
2020-Aug-08 05:10 211 4 gusting 6 21.0
2020-Aug-08 05:05 197 2 gusting 5 21.0
2020-Aug-08 05:00 206 4 gusting 6 21.0
2020-Aug-08 04:55 204 2 gusting 4 21.0
2020-Aug-08 04:50 215 3 gusting 5 21.0
2020-Aug-08 04:45 213 3 gusting 5 21.0
2020-Aug-08 04:40 209 4 gusting 6 21.0
2020-Aug-08 04:35 213 4 gusting 6 21.1
2020-Aug-08 04:30 237 4 gusting 5 21.2
2020-Aug-08 04:25 234 5 gusting 7 21.2
2020-Aug-08 04:20 226 3 gusting 5 21.2
2020-Aug-08 04:15 233 3 gusting 5 21.1
2020-Aug-08 04:10 250 3 gusting 5 21.0
2020-Aug-08 04:05 257 3 gusting 5 20.9
2020-Aug-08 04:00 248 2 gusting 3 20.9
2020-Aug-08 03:55 261 2 gusting 3 20.9
2020-Aug-08 03:50 252 2 gusting 3 20.8
2020-Aug-08 03:45 221 1 gusting 2 20.7
2020-Aug-08 03:40 213 2 gusting 4 20.7
2020-Aug-08 03:35 211 1 gusting 3 20.8
2020-Aug-08 03:30 064 0 gusting 1 20.7
2020-Aug-08 03:25 163 0 gusting 3 20.8
2020-Aug-08 03:20 154 0 gusting 3 20.8
2020-Aug-08 03:15 181 2 gusting 5 20.9
2020-Aug-08 03:10 117 0 gusting 3 20.8
2020-Aug-08 03:05 159 1 gusting 2 20.8
2020-Aug-08 03:00 172 1 gusting 4 20.8
2020-Aug-08 02:55 168 1 gusting 4 20.8
2020-Aug-08 02:50 152 1 gusting 5 20.9
2020-Aug-08 02:45 132 0 gusting 3 20.9
2020-Aug-08 02:40 154 0 gusting 1 20.9
2020-Aug-08 02:35 149 0 gusting 2 20.9
2020-Aug-08 02:30 132 0 gusting 2 20.9
2020-Aug-08 02:25 131 0 gusting 1 20.9
2020-Aug-08 02:20 093 0 gusting 1 20.9
2020-Aug-08 02:15 099 0 gusting 2 20.8
2020-Aug-08 02:10 110 1 gusting 2 20.7
2020-Aug-08 02:05 072 1 gusting 2 20.7
2020-Aug-08 02:00 028 2 gusting 4 20.8
2020-Aug-08 01:55 048 2 gusting 4 20.9
2020-Aug-08 01:50 060 1 gusting 3 20.8
2020-Aug-08 01:45 027 1 gusting 4 20.7
2020-Aug-08 01:40 018 4 gusting 8 20.6
2020-Aug-08 01:35 007 8 gusting 17 21.0
2020-Aug-08 01:30 017 5 gusting 13 21.9
2020-Aug-08 01:25 013 3 gusting 6 22.2
2020-Aug-08 01:20 024 4 gusting 6 22.2
2020-Aug-08 01:15 031 3 gusting 6 22.3
2020-Aug-08 01:10 22.5
2020-Aug-08 01:05 066 2 gusting 6 22.9
2020-Aug-08 01:00 075 2 gusting 6 23.0
2020-Aug-08 00:55 028 3 gusting 6 23.0
2020-Aug-08 00:50 008 2 gusting 4 23.0
2020-Aug-08 00:45 025 2 gusting 4 22.9
2020-Aug-08 00:40 014 2 gusting 4 22.9
2020-Aug-08 00:35 249 0 gusting 0 22.8
2020-Aug-08 00:30 351 0 gusting 1 22.8
2020-Aug-08 00:25 163 0 gusting 1 22.8
2020-Aug-08 00:20 206 1 gusting 4 22.8
2020-Aug-08 00:15 162 1 gusting 3 22.9
2020-Aug-08 00:10 177 2 gusting 4 22.9
2020-Aug-08 00:05 080 0 gusting 3 23.0
2020-Aug-08 00:00 167 0 gusting 4 22.9
2020-Aug-07 23:55 244 0 gusting 3 22.9
2020-Aug-07 23:50 345 0 gusting 2 22.9
2020-Aug-07 23:45 146 1 gusting 4 23.0
2020-Aug-07 23:40 177 1 gusting 5 23.0
2020-Aug-07 23:35 140 0 gusting 2 23.1
2020-Aug-07 23:30 162 1 gusting 4 23.1
2020-Aug-07 23:25 140 1 gusting 2 23.2
2020-Aug-07 23:20 160 0 gusting 2 23.2
2020-Aug-07 23:15 185 0 gusting 2 23.3
2020-Aug-07 23:10 060 0 gusting 2 23.4
2020-Aug-07 23:05 148 1 gusting 5 23.6
2020-Aug-07 23:00 149 0 gusting 4 23.8
2020-Aug-07 22:55 095 0 gusting 3 24.1
2020-Aug-07 22:50 220 0 gusting 2 24.2
2020-Aug-07 22:45 089 0 gusting 3 24.2
2020-Aug-07 22:40 080 0 gusting 3 24.3
2020-Aug-07 22:35 088 0 gusting 3 24.6
2020-Aug-07 22:30 104 0 gusting 3 24.8
2020-Aug-07 22:25 083 0 gusting 2 24.9
2020-Aug-07 22:20 060 1 gusting 2 25.0
2020-Aug-07 22:15 142 1 gusting 3 25.1
2020-Aug-07 22:10 107 0 gusting 2 25.0
2020-Aug-07 22:05 016 1 gusting 4 25.2
2020-Aug-07 22:00 065 0 gusting 3 25.8
2020-Aug-07 21:55 079 0 gusting 1 25.7
2020-Aug-07 21:50 119 1 gusting 5 25.7
2020-Aug-07 21:45 154 0 gusting 3 25.8
2020-Aug-07 21:40 098 0 gusting 4 26.0
2020-Aug-07 21:35 076 1 gusting 4 25.8
2020-Aug-07 21:30 081 1 gusting 3 25.9
2020-Aug-07 21:25 050 1 gusting 3 26.1
2020-Aug-07 21:20 125 1 gusting 5 25.8
2020-Aug-07 21:15 088 2 gusting 5 25.7
2020-Aug-07 21:10 098 1 gusting 3 26.0
2020-Aug-07 21:05 098 1 gusting 3 25.9
2020-Aug-07 21:00 086 1 gusting 4 25.3
2020-Aug-07 20:55 089 0 gusting 2 24.8
2020-Aug-07 20:50 064 3 gusting 7 25.0
2020-Aug-07 20:45 070 3 gusting 8 25.1
2020-Aug-07 20:40 069 3 gusting 7 24.8
2020-Aug-07 20:35 064 4 gusting 10 24.4
2020-Aug-07 20:30 071 4 gusting 7 24.7
2020-Aug-07 20:25 063 4 gusting 9 24.9
2020-Aug-07 20:20 070 2 gusting 6 24.5
2020-Aug-07 20:15 065 4 gusting 9 24.3
2020-Aug-07 20:10 057 3 gusting 8 24.9
2020-Aug-07 20:05 057 3 gusting 8 25.1
2020-Aug-07 20:00 062 3 gusting 8 25.5
2020-Aug-07 19:55 063 3 gusting 11 25.6
2020-Aug-07 19:50 050 3 gusting 8 25.6
2020-Aug-07 19:45 054 3 gusting 7 26.3
2020-Aug-07 19:40 047 3 gusting 8 26.8
2020-Aug-07 19:35 056 3 gusting 6 27.4
2020-Aug-07 19:30 045 2 gusting 6 27.5
2020-Aug-07 19:25 045 3 gusting 7 27.4
2020-Aug-07 19:20 050 2 gusting 4 27.5
2020-Aug-07 19:15 059 3 gusting 8 27.1
2020-Aug-07 19:10 045 3 gusting 6 27.3
2020-Aug-07 19:05 068 3 gusting 7 27.4
2020-Aug-07 19:00 055 2 gusting 6 27.3
2020-Aug-07 18:55 054 2 gusting 5 27.4
2020-Aug-07 18:50 030 3 gusting 6 27.3
2020-Aug-07 18:45 036 2 gusting 4 27.8
2020-Aug-07 18:40 039 2 gusting 4 27.3
2020-Aug-07 18:35 037 3 gusting 6 27.0
2020-Aug-07 18:30 033 3 gusting 6 27.2
2020-Aug-07 18:25 036 3 gusting 4 27.2
2020-Aug-07 18:20 034 3 gusting 6 27.1
2020-Aug-07 18:15 033 2 gusting 5 27.3
2020-Aug-07 18:10 034 3 gusting 6 27.1
2020-Aug-07 18:05 027 3 gusting 7 27.2
2020-Aug-07 18:00 037 2 gusting 5 27.1
2020-Aug-07 17:55 027 3 gusting 6 27.0
2020-Aug-07 17:50 029 3 gusting 6 27.1
2020-Aug-07 17:45 046 2 gusting 5 27.2
2020-Aug-07 17:40 036 2 gusting 6 27.0
2020-Aug-07 17:35 032 2 gusting 4 26.8
2020-Aug-07 17:30 030 2 gusting 4 26.7
2020-Aug-07 17:25 045 2 gusting 5 27.0
2020-Aug-07 17:20 065 2 gusting 4 26.5
2020-Aug-07 17:15 064 1 gusting 3 26.0
2020-Aug-07 17:10 062 1 gusting 4 26.2
2020-Aug-07 17:05 061 2 gusting 6 26.6
2020-Aug-07 17:00 039 2 gusting 4 27.0
2020-Aug-07 16:55 041 2 gusting 5 26.7
2020-Aug-07 16:50 040 2 gusting 5 26.4
2020-Aug-07 16:45 034 2 gusting 6 26.0
2020-Aug-07 16:40 053 3 gusting 6 26.2
2020-Aug-07 16:35 040 2 gusting 6 26.3
2020-Aug-07 16:30 029 3 gusting 6 26.0
2020-Aug-07 16:25 030 2 gusting 4 26.2
2020-Aug-07 16:20 038 1 gusting 3 26.6
2020-Aug-07 16:15 057 1 gusting 4 26.5
2020-Aug-07 16:10 040 2 gusting 4 25.9
2020-Aug-07 16:05 041 2 gusting 4 25.6
2020-Aug-07 16:00 038 2 gusting 5 26.0
2020-Aug-07 15:55 046 2 gusting 4 26.6
2020-Aug-07 15:50 046 2 gusting 5 26.4
2020-Aug-07 15:45 041 1 gusting 4 26.2
2020-Aug-07 15:40 043 2 gusting 5 26.1
2020-Aug-07 15:35 059 2 gusting 4 25.9
2020-Aug-07 15:30 042 2 gusting 3 25.5
2020-Aug-07 15:25 040 1 gusting 3 25.0
2020-Aug-07 15:20 031 2 gusting 4 24.9
2020-Aug-07 15:15 031 2 gusting 5 24.8
2020-Aug-07 15:10 022 3 gusting 5 25.0
2020-Aug-07 15:05 029 2 gusting 5 25.6
2020-Aug-07 15:00 037 2 gusting 5 25.7
2020-Aug-07 14:55 046 1 gusting 3 25.4
2020-Aug-07 14:50 021 2 gusting 5 25.2
2020-Aug-07 14:45 048 1 gusting 3 25.2
2020-Aug-07 14:40 023 1 gusting 3 24.9
2020-Aug-07 14:35 053 1 gusting 3 24.7
2020-Aug-07 14:30 032 2 gusting 3 24.5
2020-Aug-07 14:25 036 1 gusting 3 24.5
2020-Aug-07 14:20 056 1 gusting 3 24.6
2020-Aug-07 14:15 042 1 gusting 2 24.5
2020-Aug-07 14:10 042 1 gusting 2 24.5
2020-Aug-07 14:05 062 1 gusting 3 24.8
2020-Aug-07 14:00 059 1 gusting 3 24.7
2020-Aug-07 13:55 056 2 gusting 4 24.5
2020-Aug-07 13:50 071 1 gusting 4 24.2
2020-Aug-07 13:45 042 1 gusting 3 24.1
2020-Aug-07 13:40 024 1 gusting 2 23.6
2020-Aug-07 13:35 033 1 gusting 3 23.3
2020-Aug-07 13:30 027 1 gusting 2 23.1
2020-Aug-07 13:25 029 1 gusting 3 23.0
2020-Aug-07 13:20 034 2 gusting 4 23.1
2020-Aug-07 13:15 024 2 gusting 4 23.1
2020-Aug-07 13:10 041 1 gusting 3 23.1
2020-Aug-07 13:05 026 1 gusting 3 23.0
2020-Aug-07 13:00 080 1 gusting 2 23.1
2020-Aug-07 12:55 061 0 gusting 3 23.1
2020-Aug-07 12:50 068 0 gusting 2 23.1
2020-Aug-07 12:45 093 0 gusting 1 23.1
2020-Aug-07 12:40 072 0 gusting 2 23.2
2020-Aug-07 12:35 036 1 gusting 2 23.1
2020-Aug-07 12:30 090 0 gusting 1 22.9
2020-Aug-07 12:25 22.7
2020-Aug-07 12:20 174 0 gusting 0 22.7
2020-Aug-07 12:15 198 0 gusting 1 22.6
2020-Aug-07 12:10 142 0 gusting 1 22.5
2020-Aug-07 12:05 198 1 gusting 4 22.3
2020-Aug-07 12:00 183 1 gusting 3 22.2
2020-Aug-07 11:55 201 1 gusting 2 22.1
2020-Aug-07 11:50 193 1 gusting 2 22.0
2020-Aug-07 11:45 165 0 gusting 1 21.9
2020-Aug-07 11:40 148 0 gusting 1 21.8
2020-Aug-07 11:35 187 0 gusting 1 21.8
2020-Aug-07 11:30 166 0 gusting 1 21.7
2020-Aug-07 11:25 071 0 gusting 1 21.7
2020-Aug-07 11:20 074 0 gusting 2 21.6
2020-Aug-07 11:15 060 0 gusting 1 21.5
2020-Aug-07 11:10 059 0 gusting 1 21.5
2020-Aug-07 11:05 21.4
2020-Aug-07 11:00 226 0 gusting 0 21.3
2020-Aug-07 10:55 226 0 gusting 0 21.3
2020-Aug-07 10:50 21.3
2020-Aug-07 10:45 218 0 gusting 0 21.3
2020-Aug-07 10:40 210 0 gusting 1 21.2
2020-Aug-07 10:35 180 0 gusting 1 21.2
2020-Aug-07 10:30 149 0 gusting 0 21.2
2020-Aug-07 10:25 068 0 gusting 0 21.2
2020-Aug-07 10:20 048 0 gusting 1 21.2
2020-Aug-07 10:15 063 0 gusting 1 21.2
2020-Aug-07 10:10 068 0 gusting 0 21.3
2020-Aug-07 10:05 015 0 gusting 2 21.3
2020-Aug-07 10:00 026 1 gusting 3 21.3
2020-Aug-07 09:55 011 0 gusting 1 21.3
2020-Aug-07 09:50 125 0 gusting 1 21.3
2020-Aug-07 09:45 163 0 gusting 2 21.3
2020-Aug-07 09:40 21.3
2020-Aug-07 09:35 162 0 gusting 3 21.3
2020-Aug-07 09:30 133 0 gusting 2 21.3
2020-Aug-07 09:25 184 1 gusting 3 21.3
2020-Aug-07 09:20 165 0 gusting 2 21.3
2020-Aug-07 09:15 128 0 gusting 1 21.4
2020-Aug-07 09:10 063 0 gusting 2 21.5
2020-Aug-07 09:05 122 1 gusting 3 21.5
2020-Aug-07 09:00 074 1 gusting 2 21.5
2020-Aug-07 08:55 071 1 gusting 3 21.5
2020-Aug-07 08:50 077 0 gusting 1 21.5
2020-Aug-07 08:45 062 1 gusting 3 21.5
2020-Aug-07 08:40 099 0 gusting 3 21.5
2020-Aug-07 08:35 107 1 gusting 3 21.5
2020-Aug-07 08:30 151 0 gusting 1 21.5
2020-Aug-07 08:25 076 1 gusting 2 21.4
2020-Aug-07 08:20 079 0 gusting 2 21.4
2020-Aug-07 08:15 129 0 gusting 2 21.4
2020-Aug-07 08:10 076 0 gusting 2 21.4
2020-Aug-07 08:05 071 0 gusting 2 21.4
2020-Aug-07 08:00 138 0 gusting 2 21.4
2020-Aug-07 07:55 115 1 gusting 3 21.4
2020-Aug-07 07:50 084 0 gusting 2 21.3
2020-Aug-07 07:45 081 0 gusting 2 21.3
2020-Aug-07 07:40 080 0 gusting 2 21.3
2020-Aug-07 07:35 085 1 gusting 3 21.2
2020-Aug-07 07:30 069 1 gusting 3 21.2
2020-Aug-07 07:25 068 1 gusting 2 21.2
2020-Aug-07 07:20 075 0 gusting 1 21.2
2020-Aug-07 07:15 065 1 gusting 3 21.2
2020-Aug-07 07:10 083 0 gusting 1 21.3
2020-Aug-07 07:05 095 1 gusting 2 21.3
2020-Aug-07 07:00 079 1 gusting 3 21.3
2020-Aug-07 06:55 080 1 gusting 3 21.4
2020-Aug-07 06:50 063 1 gusting 2 21.4
2020-Aug-07 06:45 053 0 gusting 1 21.5
2020-Aug-07 06:40 090 0 gusting 2 21.5
2020-Aug-07 06:35 069 0 gusting 2 21.5
2020-Aug-07 06:30 033 0 gusting 1 21.5
2020-Aug-07 06:25 003 1 gusting 1 21.5
2020-Aug-07 06:20 037 0 gusting 0 21.5
2020-Aug-07 06:15 059 0 gusting 0 21.6
2020-Aug-07 06:10 117 0 gusting 1 21.6
2020-Aug-07 06:05 131 0 gusting 0 21.5
2020-Aug-07 06:00 109 0 gusting 1 21.5
2020-Aug-07 05:55 042 0 gusting 1 21.4
2020-Aug-07 05:50 064 1 gusting 2 21.5
2020-Aug-07 05:45 086 1 gusting 2 21.5
2020-Aug-07 05:40 067 0 gusting 2 21.5
2020-Aug-07 05:35 173 0 gusting 0 21.5
2020-Aug-07 05:30 104 0 gusting 2 21.5
2020-Aug-07 05:25 113 0 gusting 2 21.5
2020-Aug-07 05:20 094 0 gusting 2 21.4
2020-Aug-07 05:15 074 0 gusting 2 21.4
2020-Aug-07 05:10 060 0 gusting 1 21.3
2020-Aug-07 05:05 271 0 gusting 1 21.3
2020-Aug-07 05:00 108 0 gusting 3 21.3
2020-Aug-07 04:55 108 0 gusting 2 21.3
2020-Aug-07 04:50 127 0 gusting 3 21.3
2020-Aug-07 04:45 088 2 gusting 8 21.2
2020-Aug-07 04:40 062 2 gusting 6 21.1
2020-Aug-07 04:35 061 2 gusting 5 21.1
2020-Aug-07 04:30 092 1 gusting 3 21.1
2020-Aug-07 04:25 088 1 gusting 4 21.2
2020-Aug-07 04:20 108 1 gusting 3 21.2
2020-Aug-07 04:15 080 1 gusting 3 21.2
2020-Aug-07 04:10 065 0 gusting 2 21.2
2020-Aug-07 04:05 092 1 gusting 5 21.1
2020-Aug-07 04:00 090 1 gusting 6 21.1
2020-Aug-07 03:55 073 2 gusting 5 21.2
2020-Aug-07 03:50 077 2 gusting 5 21.3
2020-Aug-07 03:45 067 2 gusting 6 21.4
2020-Aug-07 03:40 073 2 gusting 4 21.4
2020-Aug-07 03:35 078 1 gusting 4 21.4
2020-Aug-07 03:30 086 1 gusting 3 21.5
2020-Aug-07 03:25 078 1 gusting 4 21.6
2020-Aug-07 03:20 076 2 gusting 4 21.6
2020-Aug-07 03:15 059 1 gusting 3 21.6
2020-Aug-07 03:10 070 1 gusting 3 21.6
2020-Aug-07 03:05 077 1 gusting 4 21.6
2020-Aug-07 03:00 074 2 gusting 4 21.6
2020-Aug-07 02:55 057 2 gusting 4 21.5
2020-Aug-07 02:50 077 2 gusting 5 21.4
2020-Aug-07 02:45 074 2 gusting 6 21.6
2020-Aug-07 02:40 075 2 gusting 4 21.6
2020-Aug-07 02:35 058 1 gusting 4 21.6
2020-Aug-07 02:30 080 1 gusting 3 21.6
2020-Aug-07 02:25 071 1 gusting 4 21.6
2020-Aug-07 02:20 048 1 gusting 3 21.6
2020-Aug-07 02:15 055 1 gusting 3 21.6
2020-Aug-07 02:10 072 2 gusting 4 21.7
2020-Aug-07 02:05 083 1 gusting 4 21.7
2020-Aug-07 02:00 085 1 gusting 3 21.7
2020-Aug-07 01:55 050 1 gusting 3 21.7
2020-Aug-07 01:50 065 0 gusting 2 21.7
2020-Aug-07 01:45 074 1 gusting 4 21.7
2020-Aug-07 01:40 095 1 gusting 3 21.8
2020-Aug-07 01:35 111 1 gusting 3 21.7
2020-Aug-07 01:30 068 1 gusting 5 21.6
2020-Aug-07 01:25 073 1 gusting 2 21.6
2020-Aug-07 01:20 068 1 gusting 3 21.6
2020-Aug-07 01:15 058 0 gusting 2 21.7
2020-Aug-07 01:10 083 0 gusting 1 21.7
2020-Aug-07 01:05 073 0 gusting 1 21.7
2020-Aug-07 01:00 063 0 gusting 1 21.7
2020-Aug-07 00:55 065 1 gusting 3 21.8
2020-Aug-07 00:50 098 0 gusting 3 21.8
2020-Aug-07 00:45 093 1 gusting 3 21.8
2020-Aug-07 00:40 085 0 gusting 2 21.7
2020-Aug-07 00:35 066 0 gusting 1 21.7
2020-Aug-07 00:30 064 0 gusting 2 21.8
2020-Aug-07 00:25 125 0 gusting 2 21.8
2020-Aug-07 00:20 096 0 gusting 3 21.7
2020-Aug-07 00:15 084 0 gusting 2 21.8
2020-Aug-07 00:10 110 0 gusting 2 21.7
2020-Aug-07 00:05 081 0 gusting 3 21.7
2020-Aug-07 00:00 067 2 gusting 4 21.7
2020-Aug-06 23:55 075 1 gusting 4 21.7
2020-Aug-06 23:50 077 1 gusting 4 21.7
2020-Aug-06 23:45 069 2 gusting 4 21.7
2020-Aug-06 23:40 075 1 gusting 4 21.7
2020-Aug-06 23:35 065 1 gusting 4 21.7
2020-Aug-06 23:30 069 1 gusting 4 21.7
2020-Aug-06 23:25 075 1 gusting 3 21.7
2020-Aug-06 23:20 102 0 gusting 3 21.7
2020-Aug-06 23:15 080 1 gusting 3 21.7
2020-Aug-06 23:10 098 0 gusting 2 21.7
2020-Aug-06 23:05 091 1 gusting 3 21.6
2020-Aug-06 23:00 103 1 gusting 3 21.6
2020-Aug-06 22:55 085 0 gusting 4 21.6
2020-Aug-06 22:50 075 1 gusting 4 21.6
2020-Aug-06 22:45 094 1 gusting 2 21.5
2020-Aug-06 22:40 073 1 gusting 4 21.6
2020-Aug-06 22:35 063 2 gusting 5 21.6
2020-Aug-06 22:30 074 2 gusting 6 21.7
2020-Aug-06 22:25 075 2 gusting 5 21.8
2020-Aug-06 22:20 079 2 gusting 5 21.8
2020-Aug-06 22:15 071 2 gusting 3 21.8
2020-Aug-06 22:10 059 0 gusting 3 22.0
2020-Aug-06 22:05 071 1 gusting 3 21.9
2020-Aug-06 22:00 101 0 gusting 2 21.9
2020-Aug-06 21:55 087 1 gusting 4 21.8
2020-Aug-06 21:50 067 2 gusting 5 21.8
2020-Aug-06 21:45 073 1 gusting 3 21.9
2020-Aug-06 21:40 080 1 gusting 4 21.8
2020-Aug-06 21:35 072 1 gusting 4 21.8
2020-Aug-06 21:30 074 2 gusting 4 21.7
2020-Aug-06 21:25 095 1 gusting 4 21.7
2020-Aug-06 21:20 080 2 gusting 5 21.7
2020-Aug-06 21:15 082 1 gusting 4 21.7
2020-Aug-06 21:10 067 2 gusting 8 21.7
2020-Aug-06 21:05 071 2 gusting 5 21.8
2020-Aug-06 21:00 080 3 gusting 6 21.8
2020-Aug-06 20:55 068 3 gusting 7 21.9
2020-Aug-06 20:50 068 2 gusting 5 21.9
2020-Aug-06 20:45 065 2 gusting 4 22.0
2020-Aug-06 20:40 064 2 gusting 5 22.0
2020-Aug-06 20:35 069 3 gusting 7 22.1
2020-Aug-06 20:30 076 2 gusting 5 22.1
2020-Aug-06 20:25 066 2 gusting 5 22.1
2020-Aug-06 20:20 072 2 gusting 5 22.1
2020-Aug-06 20:15 065 2 gusting 5 22.1
2020-Aug-06 20:10 068 2 gusting 6 22.1
2020-Aug-06 20:05 058 2 gusting 6 22.3
2020-Aug-06 20:00 074 2 gusting 5 22.5
2020-Aug-06 19:55 083 1 gusting 4 22.7
2020-Aug-06 19:50 092 1 gusting 4 22.6
2020-Aug-06 19:45 070 1 gusting 4 22.6
2020-Aug-06 19:40 133 0 gusting 2 22.8
2020-Aug-06 19:35 186 0 gusting 1 23.0
2020-Aug-06 19:30 119 0 gusting 1 23.1
2020-Aug-06 19:25 134 0 gusting 2 23.2
2020-Aug-06 19:20 090 1 gusting 3 23.2
2020-Aug-06 19:15 090 1 gusting 4 23.3
2020-Aug-06 19:10 098 0 gusting 4 23.4
2020-Aug-06 19:05 105 1 gusting 3 23.5
2020-Aug-06 19:00 062 1 gusting 3 23.7
2020-Aug-06 18:55 093 0 gusting 3 23.9
2020-Aug-06 18:50 108 1 gusting 5 24.3
2020-Aug-06 18:45 067 1 gusting 5 24.6
2020-Aug-06 18:40 076 1 gusting 4 24.9
2020-Aug-06 18:35 053 1 gusting 5 25.1
2020-Aug-06 18:30 086 2 gusting 6 25.5
2020-Aug-06 18:25 079 1 gusting 4 25.5
2020-Aug-06 18:20 136 1 gusting 4 25.3
2020-Aug-06 18:15 120 1 gusting 5 25.1
2020-Aug-06 18:10 091 1 gusting 3 24.8
2020-Aug-06 18:05 082 1 gusting 4 24.3
2020-Aug-06 18:00 074 1 gusting 3 24.7
2020-Aug-06 17:55 095 1 gusting 4 25.1
2020-Aug-06 17:50 140 1 gusting 6 24.8
2020-Aug-06 17:45 069 1 gusting 5 25.0
2020-Aug-06 17:40 086 1 gusting 7 24.9
2020-Aug-06 17:35 088 1 gusting 3 25.0
2020-Aug-06 17:30 109 1 gusting 4 24.9
2020-Aug-06 17:25 103 1 gusting 4 24.8
2020-Aug-06 17:20 109 0 gusting 4 24.4
2020-Aug-06 17:15 072 1 gusting 7 23.9
2020-Aug-06 17:10 111 1 gusting 4 23.8
2020-Aug-06 17:05 073 1 gusting 7 23.9
2020-Aug-06 17:00 095 1 gusting 4 23.9
2020-Aug-06 16:55 098 1 gusting 6 23.5
2020-Aug-06 16:50 084 2 gusting 6 23.2
2020-Aug-06 16:45 086 1 gusting 5 23.2
2020-Aug-06 16:40 097 2 gusting 7 23.3
2020-Aug-06 16:35 099 1 gusting 7 23.9
2020-Aug-06 16:30 061 1 gusting 7 24.2
2020-Aug-06 16:25 075 2 gusting 5 24.1
2020-Aug-06 16:20 057 3 gusting 7 23.6
2020-Aug-06 16:15 069 3 gusting 6 23.6
2020-Aug-06 16:10 066 2 gusting 8 23.9
2020-Aug-06 16:05 105 2 gusting 6 23.2
2020-Aug-06 16:00 065 3 gusting 7 22.7
2020-Aug-06 15:55 063 3 gusting 8 22.6
2020-Aug-06 15:50 069 3 gusting 9 22.5
2020-Aug-06 15:45 073 3 gusting 6 22.4
2020-Aug-06 15:40 071 3 gusting 8 22.5
2020-Aug-06 15:35 063 2 gusting 6 22.7
2020-Aug-06 15:30 060 3 gusting 7 22.7
2020-Aug-06 15:25 074 3 gusting 8 22.9
2020-Aug-06 15:20 070 4 gusting 7 23.0
2020-Aug-06 15:15 059 3 gusting 6 23.0
2020-Aug-06 15:10 057 2 gusting 5 22.9
2020-Aug-06 15:05 066 2 gusting 6 22.9
2020-Aug-06 15:00 066 3 gusting 7 22.8
2020-Aug-06 14:55 060 2 gusting 4 22.7
2020-Aug-06 14:50 073 2 gusting 7 22.4
2020-Aug-06 14:45 072 2 gusting 5 22.3
2020-Aug-06 14:40 090 2 gusting 4 22.2
2020-Aug-06 14:35 073 2 gusting 5 22.1
2020-Aug-06 14:30 070 1 gusting 3 22.0
2020-Aug-06 14:25 083 1 gusting 3 21.9
2020-Aug-06 14:20 066 0 gusting 2 21.8
2020-Aug-06 14:15 162 0 gusting 2 21.8
2020-Aug-06 14:10 176 0 gusting 2 21.8
2020-Aug-06 14:05 088 0 gusting 0 21.7
2020-Aug-06 14:00 074 0 gusting 0 21.6
2020-Aug-06 13:55 056 0 gusting 1 21.5
2020-Aug-06 13:50 165 0 gusting 2 21.4
2020-Aug-06 13:45 169 0 gusting 1 21.3
2020-Aug-06 13:40 097 0 gusting 0 21.3
2020-Aug-06 13:35 197 0 gusting 1 21.3
2020-Aug-06 13:30 172 0 gusting 2 21.3
2020-Aug-06 13:25 147 0 gusting 0 21.3
2020-Aug-06 13:20 144 0 gusting 1 21.2
2020-Aug-06 13:15 143 1 gusting 2 21.1
2020-Aug-06 13:10 140 0 gusting 1 21.1
2020-Aug-06 13:05 21.2
2020-Aug-06 13:00 186 1 gusting 1 21.1
2020-Aug-06 12:55 231 0 gusting 1 21.1
2020-Aug-06 12:50 324 2 gusting 6 21.0
2020-Aug-06 12:45 320 3 gusting 7 20.9
2020-Aug-06 12:40 341 5 gusting 8 21.0
2020-Aug-06 12:35 349 5 gusting 9 21.0
2020-Aug-06 12:30 004 5 gusting 8 20.8
2020-Aug-06 12:25 287 1 gusting 4 20.7
2020-Aug-06 12:20 237 3 gusting 6 20.8
2020-Aug-06 12:15 283 4 gusting 10 20.9
2020-Aug-06 12:10 294 6 gusting 12 21.3
2020-Aug-06 12:05 295 7 gusting 15 21.4
2020-Aug-06 12:00 285 5 gusting 10 22.2
2020-Aug-06 11:55 310 2 gusting 7 23.0
2020-Aug-06 11:50 025 0 gusting 1 23.0
2020-Aug-06 11:45 356 0 gusting 1 22.9
2020-Aug-06 11:40 326 0 gusting 1 22.7
2020-Aug-06 11:35 173 0 gusting 1 22.8
2020-Aug-06 11:30 084 0 gusting 1 22.7
2020-Aug-06 11:25 077 0 gusting 1 22.7
2020-Aug-06 11:20 070 0 gusting 1 22.6
2020-Aug-06 11:15 080 0 gusting 1 22.7
2020-Aug-06 11:10 22.6
2020-Aug-06 11:05 141 0 gusting 1 22.5
2020-Aug-06 11:00 067 0 gusting 1 22.5